TimeMST,TemperatureF,Dew PointF,Humidity,Sea Level PressureIn,VisibilityMPH,Wind Direction,Wind SpeedMPH,Gust SpeedMPH,PrecipitationIn,Events,Conditions,WindDirDegrees,DateUTC
12:15 AM,36.9,31.6,81,29.83,10.0,WSW,3.5,-,N/A,,Clear,250,2013-11-15 07:15:00
12:35 AM,36.1,31.6,84,29.81,10.0,West,3.5,-,N/A,,Clear,260,2013-11-15 07:35:00
12:55 AM,36.9,32.0,83,29.81,10.0,West,5.8,-,N/A,,Clear,260,2013-11-15 07:55:00
1:15 AM,36.7,32.0,83,29.81,10.0,SW,3.5,-,N/A,,Clear,230,2013-11-15 08:15:00
1:35 AM,36.9,32.0,83,29.80,10.0,Calm,Calm,-,N/A,,Clear,0,2013-11-15 08:35:00
1:55 AM,35.6,31.6,85,29.80,10.0,Calm,Calm,-,N/A,,Clear,0,2013-11-15 08:55:00
2:15 AM,37.0,32.2,83,29.79,10.0,Calm,Calm,-,N/A,,Clear,0,2013-11-15 09:15:00
2:35 AM,36.7,32.0,83,29.79,10.0,Calm,Calm,-,N/A,,Clear,0,2013-11-15 09:35:00
2:55 AM,36.9,32.0,83,29.78,10.0,Calm,Calm,-,N/A,,Clear,0,2013-11-15 09:55:00
3:15 AM,36.5,32.0,84,29.75,10.0,Calm,Calm,-,N/A,,Clear,0,2013-11-15 10:15:00
3:35 AM,37.8,32.7,82,29.75,10.0,South,5.8,-,N/A,,Clear,190,2013-11-15 10:35:00
3:55 AM,38.5,32.9,80,29.75,10.0,SSW,8.1,-,N/A,,Clear,200,2013-11-15 10:55:00
4:15 AM,36.9,32.0,83,29.74,10.0,SSW,5.8,-,N/A,,Clear,200,2013-11-15 11:15:00
4:35 AM,35.8,32.0,86,29.74,10.0,Calm,Calm,-,N/A,,Clear,0,2013-11-15 11:35:00
4:55 AM,36.9,33.1,86,29.73,10.0,South,6.9,-,N/A,,Clear,190,2013-11-15 11:55:00
5:15 AM,37.4,33.4,86,29.73,10.0,South,10.4,-,N/A,,Clear,190,2013-11-15 12:15:00
5:35 AM,37.2,33.3,86,29.72,10.0,South,9.2,-,N/A,,Clear,180,2013-11-15 12:35:00
5:55 AM,37.4,33.4,86,29.72,10.0,South,9.2,-,N/A,,Clear,180,2013-11-15 12:55:00
6:15 AM,37.4,33.3,85,29.71,10.0,South,8.1,-,N/A,,Clear,170,2013-11-15 13:15:00
6:35 AM,36.7,32.9,86,29.71,10.0,SSW,3.5,-,N/A,,Clear,200,2013-11-15 13:35:00
6:55 AM,37.4,33.3,85,29.72,10.0,South,3.5,-,N/A,,Clear,180,2013-11-15 13:55:00
7:15 AM,37.0,33.3,86,29.73,10.0,SSE,4.6,-,N/A,,Clear,160,2013-11-15 14:15:00
7:35 AM,37.0,33.8,88,29.72,10.0,Calm,Calm,-,N/A,,Clear,0,2013-11-15 14:35:00
7:55 AM,38.1,34.7,87,29.73,10.0,Calm,Calm,-,N/A,,Clear,0,2013-11-15 14:55:00
8:15 AM,38.8,34.7,85,29.72,10.0,SSE,5.8,-,N/A,,Clear,160,2013-11-15 15:15:00
8:35 AM,40.8,35.6,82,29.72,10.0,Calm,Calm,-,N/A,,Clear,0,2013-11-15 15:35:00
8:55 AM,43.0,36.5,78,29.71,10.0,SSE,8.1,-,N/A,,Clear,160,2013-11-15 15:55:00
9:15 AM,45.7,37.8,74,29.69,10.0,South,10.4,-,N/A,,Clear,170,2013-11-15 16:15:00
9:35 AM,47.8,38.3,70,29.68,10.0,South,12.7,18.4,N/A,,Clear,180,2013-11-15 16:35:00
9:55 AM,50.0,38.3,64,29.68,10.0,SSW,13.8,21.9,N/A,,Clear,200,2013-11-15 16:55:00
10:15 AM,51.1,38.3,62,29.67,10.0,South,17.3,-,N/A,,Clear,190,2013-11-15 17:15:00
10:35 AM,52.2,37.8,58,29.66,10.0,South,16.1,21.9,N/A,,Clear,190,2013-11-15 17:35:00
10:55 AM,52.7,37.6,56,29.64,10.0,South,13.8,19.6,N/A,,Clear,190,2013-11-15 17:55:00
11:15 AM,54.5,38.1,54,29.62,10.0,South,13.8,18.4,N/A,,Clear,190,2013-11-15 18:15:00
11:35 AM,56.1,37.8,50,29.61,10.0,SSW,12.7,18.4,N/A,,Clear,200,2013-11-15 18:35:00
11:55 AM,57.6,37.4,47,29.59,10.0,SSW,10.4,16.1,N/A,,Clear,200,2013-11-15 18:55:00
12:15 PM,59.2,36.3,43,29.57,10.0,SSW,9.2,-,N/A,,Clear,200,2013-11-15 19:15:00
12:35 PM,60.4,34.7,38,29.56,10.0,South,9.2,-,N/A,,Clear,190,2013-11-15 19:35:00
12:55 PM,61.3,33.1,35,29.55,7.0,SSW,5.8,-,N/A,,Clear,210,2013-11-15 19:55:00
1:15 PM,62.1,32.0,32,29.54,10.0,WSW,5.8,-,N/A,,Clear,240,2013-11-15 20:15:00
1:35 PM,61.9,31.3,32,29.53,10.0,SW,3.5,-,N/A,,Clear,220,2013-11-15 20:35:00
1:55 PM,62.6,30.9,30,29.53,10.0,SW,4.6,-,N/A,,Clear,220,2013-11-15 20:55:00
2:15 PM,62.8,31.1,30,29.53,10.0,SSW,6.9,-,N/A,,Clear,200,2013-11-15 21:15:00
2:35 PM,62.6,30.2,30,29.52,10.0,SSW,5.8,-,N/A,,Clear,200,2013-11-15 21:35:00
2:55 PM,62.4,30.9,31,29.52,10.0,SSW,5.8,-,N/A,,Clear,200,2013-11-15 21:55:00
3:15 PM,62.1,30.7,31,29.52,10.0,South,5.8,-,N/A,,Clear,190,2013-11-15 22:15:00
3:35 PM,61.5,30.4,31,29.51,10.0,South,4.6,-,N/A,,Clear,190,2013-11-15 22:35:00
3:55 PM,59.9,30.0,32,29.51,10.0,SSE,4.6,-,N/A,,Clear,160,2013-11-15 22:55:00
4:15 PM,57.9,30.0,35,29.50,10.0,SE,3.5,-,N/A,,Clear,140,2013-11-15 23:15:00
4:35 PM,54.5,31.8,42,29.50,10.0,SE,4.6,-,N/A,,Clear,140,2013-11-15 23:35:00
4:55 PM,50.9,31.1,47,29.50,10.0,SE,4.6,-,N/A,,Clear,140,2013-11-15 23:55:00
5:15 PM,48.4,32.0,53,29.49,10.0,ESE,5.8,-,N/A,,Clear,120,2013-11-16 00:15:00
5:35 PM,47.8,32.0,54,29.49,10.0,ESE,3.5,-,N/A,,Clear,110,2013-11-16 00:35:00
5:55 PM,47.5,32.0,55,29.49,10.0,ESE,5.8,-,N/A,,Clear,120,2013-11-16 00:55:00
6:15 PM,46.8,32.0,57,29.49,10.0,East,5.8,-,N/A,,Clear,100,2013-11-16 01:15:00
6:35 PM,47.5,32.0,55,29.49,10.0,ESE,4.6,-,N/A,,Clear,110,2013-11-16 01:35:00
6:55 PM,45.9,32.0,58,29.49,10.0,ESE,5.8,-,N/A,,Clear,110,2013-11-16 01:55:00
7:15 PM,46.9,32.0,56,29.48,10.0,ESE,4.6,-,N/A,,Clear,120,2013-11-16 02:15:00
7:35 PM,46.6,33.1,59,29.47,10.0,East,8.1,-,N/A,,Clear,100,2013-11-16 02:35:00
7:55 PM,45.9,33.8,63,29.46,10.0,Calm,Calm,-,N/A,,Clear,0,2013-11-16 02:55:00
8:15 PM,45.0,33.8,65,29.46,10.0,East,8.1,-,N/A,,Clear,100,2013-11-16 03:15:00
8:35 PM,46.6,33.8,61,29.45,10.0,East,8.1,-,N/A,,Clear,100,2013-11-16 03:35:00
8:55 PM,44.8,34.0,66,29.45,10.0,Calm,Calm,-,N/A,,Clear,0,2013-11-16 03:55:00
9:15 PM,45.1,33.8,65,29.44,10.0,East,3.5,-,N/A,,Clear,100,2013-11-16 04:15:00
9:35 PM,46.8,32.4,57,29.43,10.0,SE,5.8,-,N/A,,Clear,140,2013-11-16 04:35:00
9:55 PM,47.8,32.0,54,29.43,10.0,South,3.5,-,N/A,,Clear,180,2013-11-16 04:55:00
10:15 PM,45.9,32.0,58,29.43,10.0,NW,3.5,-,N/A,,Clear,310,2013-11-16 05:15:00
10:35 PM,43.3,31.6,63,29.43,10.0,West,3.5,-,N/A,,Clear,260,2013-11-16 05:35:00
10:55 PM,39.7,30.2,69,29.41,10.0,Calm,Calm,-,N/A,,Clear,0,2013-11-16 05:55:00
11:15 PM,39.4,31.6,74,29.41,10.0,WNW,8.1,-,N/A,,Clear,290,2013-11-16 06:15:00
11:35 PM,35.8,30.0,80,29.41,10.0,NNW,3.5,-,N/A,,Clear,340,2013-11-16 06:35:00
11:55 PM,36.0,30.7,81,29.41,10.0,Calm,Calm,-,N/A,,Clear,0,2013-11-16 06:55:00